Location: Unspecified
(0.0000°N, 0.0000°E)
Time: 14:35:19
(UTC+00:00)

PRISM - Visible Passes

Search period start: 27 September 2023 00:00
Search period end: 07 October 2023 00:00
Orbit: 528 x 551 km, 98.2° (Epoch: 27 September)

Date Brightness Start Highest point End Pass type
(mag) Time Alt. Az. Time Alt. Az. Time Alt. Az.
27 Sep ? 19:04:50 10° S 19:08:43 80° WSW 19:12:33 10° NNW visible
28 Sep ? 18:57:21 10° SSE 19:01:13 76° ENE 19:05:02 10° N visible
29 Sep ? 18:49:54 10° SSE 18:53:41 55° ENE 18:57:26 10° N visible
30 Sep ? 18:42:28 10° SSE 18:46:07 40° ENE 18:49:42 10° N visible
01 Oct ? 18:35:06 10° SE 18:38:30 30° ENE 18:41:52 10° NNE visible
02 Oct ? 18:27:48 10° SE 18:30:51 23° ENE 18:33:53 10° NNE visible
02 Oct ? 20:04:09 10° WSW 20:05:01 11° WSW 20:05:52 10° W visible
03 Oct ? 18:20:36 10° ESE 18:23:10 17° ENE 18:25:43 10° NE visible
03 Oct ? 19:55:14 10° SW 19:57:20 14° WSW 19:59:25 10° WNW visible
04 Oct ? 18:13:39 10° ESE 18:15:27 13° ENE 18:17:14 10° NE visible
04 Oct ? 19:46:53 10° SSW 19:49:37 19° WSW 19:52:21 10° WNW visible
05 Oct ? 19:38:41 10° SSW 19:41:51 25° WSW 19:45:01 10° NW visible
06 Oct ? 19:30:36 10° SSW 19:34:04 33° WSW 19:37:32 10° NW visible
